Time,TemperatureF,DewpointF,PressureIn,WindDirection,WindDirectionDegrees,WindSpeedMPH,WindSpeedGustMPH,Humidity,HourlyPrecipIn,Conditions,Clouds,dailyrainin,SoftwareType,DateUTC
2013-01-26 00:00:00,25.0,19.4,30.10,WNW,293,2.2,7.6,79,0.00,,,0.02,WUHU216HW,2013-01-26 05:00:00,
2013-01-26 00:05:00,24.8,19.3,30.10,WNW,293,3.4,5.8,79,0.00,,,0.00,WUHU216HW,2013-01-26 05:05:00,
2013-01-26 00:10:00,24.8,19.3,30.11,WSW,248,2.7,5.1,79,0.00,,,0.00,WUHU216HW,2013-01-26 05:10:00,
2013-01-26 00:15:00,24.5,18.9,30.11,West,270,4.5,5.4,79,0.00,,,0.00,WUHU216HW,2013-01-26 05:15:00,
2013-01-26 00:20:00,24.1,18.3,30.11,West,270,4.0,5.4,78,0.00,,,0.00,WUHU216HW,2013-01-26 05:20:00,
2013-01-26 00:25:00,23.9,18.1,30.12,West,270,2.7,4.0,78,0.00,,,0.00,WUHU216HW,2013-01-26 05:25:00,
2013-01-26 00:30:00,23.6,17.5,30.12,West,270,3.4,3.4,77,0.00,,,0.00,WUHU216HW,2013-01-26 05:30:00,
2013-01-26 00:35:00,23.4,17.3,30.12,West,270,1.8,4.3,77,0.00,,,0.00,WUHU216HW,2013-01-26 05:35:00,
2013-01-26 00:40:00,23.2,17.1,30.12,West,270,1.8,4.3,77,0.00,,,0.00,WUHU216HW,2013-01-26 05:40:00,
2013-01-26 00:45:00,22.9,17.0,30.13,SW,225,1.1,2.9,78,0.00,,,0.00,WUHU216HW,2013-01-26 05:45:00,
2013-01-26 00:50:00,22.7,16.8,30.13,SW,225,2.5,2.7,78,0.00,,,0.00,WUHU216HW,2013-01-26 05:50:00,
2013-01-26 00:55:00,22.5,16.7,30.13,SW,225,1.8,2.7,78,0.00,,,0.00,WUHU216HW,2013-01-26 05:55:00,
2013-01-26 01:00:00,22.3,16.5,30.13,SSW,203,2.0,3.1,78,0.00,,,0.00,WUHU216HW,2013-01-26 06:00:00,
2013-01-26 01:05:00,22.0,16.1,30.13,SSW,203,0.4,3.1,78,0.00,,,0.00,WUHU216HW,2013-01-26 06:05:00,
2013-01-26 01:10:00,21.6,15.8,30.13,SW,225,3.4,4.5,78,0.00,,,0.00,WUHU216HW,2013-01-26 06:10:00,
2013-01-26 01:15:00,21.4,15.6,30.13,SW,225,3.8,4.5,78,0.00,,,0.00,WUHU216HW,2013-01-26 06:15:00,
2013-01-26 01:20:00,21.2,15.8,30.13,WSW,248,2.5,4.0,79,0.00,,,0.00,WUHU216HW,2013-01-26 06:20:00,
2013-01-26 01:25:00,21.4,16.2,30.14,WSW,248,3.4,6.7,80,0.00,,,0.00,WUHU216HW,2013-01-26 06:25:00,
2013-01-26 01:30:00,21.4,15.9,30.14,WSW,248,4.0,6.7,79,0.00,,,0.00,WUHU216HW,2013-01-26 06:30:00,
2013-01-26 01:35:00,21.2,15.8,30.14,SW,225,3.4,4.7,79,0.00,,,0.00,WUHU216HW,2013-01-26 06:35:00,
2013-01-26 01:40:00,21.2,15.8,30.14,West,270,4.3,4.3,79,0.00,,,0.00,WUHU216HW,2013-01-26 06:40:00,
2013-01-26 01:45:00,21.1,15.8,30.15,WSW,248,4.0,4.7,80,0.00,,,0.00,WUHU216HW,2013-01-26 06:45:00,
2013-01-26 01:50:00,21.2,16.0,30.15,West,270,3.1,4.7,80,0.00,,,0.00,WUHU216HW,2013-01-26 06:50:00,
2013-01-26 01:55:00,21.2,16.0,30.15,WSW,248,6.0,6.0,80,0.00,,,0.00,WUHU216HW,2013-01-26 06:55:00,
2013-01-26 02:00:00,21.4,16.2,30.15,WNW,293,3.4,6.0,80,0.00,,,0.00,WUHU216HW,2013-01-26 07:00:00,
2013-01-26 02:05:00,21.4,16.2,30.16,WNW,293,2.7,4.7,80,0.00,,,0.00,WUHU216HW,2013-01-26 07:05:00,
2013-01-26 02:10:00,21.6,16.4,30.15,WSW,248,2.5,4.3,80,0.00,,,0.00,WUHU216HW,2013-01-26 07:10:00,
2013-01-26 02:15:00,21.6,16.4,30.15,WNW,293,2.7,4.3,80,0.00,,,0.00,WUHU216HW,2013-01-26 07:15:00,
2013-01-26 02:20:00,21.4,15.9,30.15,WNW,293,3.4,4.7,79,0.00,,,0.00,WUHU216HW,2013-01-26 07:20:00,
2013-01-26 02:25:00,21.4,15.9,30.15,West,270,2.9,4.7,79,0.00,,,0.00,WUHU216HW,2013-01-26 07:25:00,
2013-01-26 02:30:00,21.2,15.8,30.15,West,270,3.6,4.7,79,0.00,,,0.00,WUHU216HW,2013-01-26 07:30:00,
2013-01-26 02:35:00,21.2,15.8,30.15,WNW,293,0.4,4.0,79,0.00,,,0.00,WUHU216HW,2013-01-26 07:35:00,
2013-01-26 02:40:00,21.1,15.6,30.15,WNW,293,2.0,2.0,79,0.00,,,0.00,WUHU216HW,2013-01-26 07:40:00,
2013-01-26 02:45:00,21.1,15.6,30.15,WSW,248,3.4,3.6,79,0.00,,,0.00,WUHU216HW,2013-01-26 07:45:00,
2013-01-26 02:50:00,21.1,15.6,30.15,West,270,3.4,3.6,79,0.00,,,0.00,WUHU216HW,2013-01-26 07:50:00,
2013-01-26 02:55:00,20.9,15.4,30.16,WSW,248,1.8,4.7,79,0.00,,,0.00,WUHU216HW,2013-01-26 07:55:00,
2013-01-26 03:00:00,20.7,15.2,30.16,West,270,1.1,4.7,79,0.00,,,0.00,WUHU216HW,2013-01-26 08:00:00,
2013-01-26 03:05:00,20.5,15.3,30.16,West,270,2.7,2.7,80,0.00,,,0.00,WUHU216HW,2013-01-26 08:05:00,
2013-01-26 03:10:00,20.3,14.9,30.16,WSW,248,1.6,2.7,79,0.00,,,0.00,WUHU216HW,2013-01-26 08:10:00,
2013-01-26 03:15:00,20.2,14.7,30.17,WNW,293,1.8,1.8,79,0.00,,,0.00,WUHU216HW,2013-01-26 08:15:00,
2013-01-26 03:20:00,20.0,14.8,30.17,WNW,293,3.4,3.8,80,0.00,,,0.00,WUHU216HW,2013-01-26 08:20:00,
2013-01-26 03:25:00,20.0,14.8,30.17,WNW,293,3.4,3.8,80,0.00,,,0.00,WUHU216HW,2013-01-26 08:25:00,
2013-01-26 03:30:00,19.8,14.6,30.17,WNW,293,0.4,3.4,80,0.00,,,0.00,WUHU216HW,2013-01-26 08:30:00,
2013-01-26 03:35:00,19.8,14.6,30.17,West,270,1.3,3.4,80,0.00,,,0.00,WUHU216HW,2013-01-26 08:35:00,
2013-01-26 03:40:00,19.8,14.6,30.17,SW,225,1.1,1.8,80,0.00,,,0.00,WUHU216HW,2013-01-26 08:40:00,
2013-01-26 03:45:00,19.3,14.0,30.17,West,270,2.2,2.2,80,0.00,,,0.00,WUHU216HW,2013-01-26 08:45:00,
2013-01-26 03:50:00,18.9,13.7,30.17,WNW,293,0.0,2.2,80,0.00,,,0.00,WUHU216HW,2013-01-26 08:50:00,
2013-01-26 03:55:00,18.7,13.5,30.17,NNW,338,0.2,1.8,80,0.00,,,0.00,WUHU216HW,2013-01-26 08:55:00,
2013-01-26 04:00:00,18.9,14.0,30.17,NNW,338,0.2,0.9,81,0.00,,,0.00,WUHU216HW,2013-01-26 09:00:00,
2013-01-26 04:05:00,18.5,13.6,30.17,NNW,338,0.0,0.2,81,0.00,,,0.00,WUHU216HW,2013-01-26 09:05:00,
2013-01-26 04:10:00,18.2,13.0,30.17,NNW,338,0.0,0.0,80,0.00,,,0.00,WUHU216HW,2013-01-26 09:10:00,
2013-01-26 04:15:00,17.8,12.6,30.17,NNW,338,0.0,0.0,80,0.00,,,0.00,WUHU216HW,2013-01-26 09:15:00,
2013-01-26 04:20:00,17.5,12.2,30.17,NW,315,0.9,1.6,80,0.00,,,0.00,WUHU216HW,2013-01-26 09:20:00,
2013-01-26 04:25:00,17.1,12.0,30.18,WNW,293,2.5,2.5,80,0.00,,,0.00,WUHU216HW,2013-01-26 09:25:00,
2013-01-26 04:30:00,17.1,12.0,30.18,West,270,0.4,2.5,80,0.00,,,0.00,WUHU216HW,2013-01-26 09:30:00,
2013-01-26 04:35:00,16.9,11.8,30.18,WNW,293,0.9,0.9,80,0.00,,,0.00,WUHU216HW,2013-01-26 09:35:00,
2013-01-26 04:40:00,16.9,11.8,30.18,WNW,293,1.1,1.8,80,0.00,,,0.00,WUHU216HW,2013-01-26 09:40:00,
2013-01-26 04:45:00,16.9,12.1,30.19,WNW,293,0.0,1.8,81,0.00,,,0.00,WUHU216HW,2013-01-26 09:45:00,
2013-01-26 04:50:00,16.9,12.1,30.19,West,270,1.6,1.6,81,0.00,,,0.00,WUHU216HW,2013-01-26 09:50:00,
2013-01-26 04:55:00,16.9,12.1,30.19,WNW,293,0.0,1.6,81,0.00,,,0.00,WUHU216HW,2013-01-26 09:55:00,
2013-01-26 05:00:00,16.6,11.7,30.19,WNW,293,0.4,1.3,81,0.00,,,0.00,WUHU216HW,2013-01-26 10:00:00,
2013-01-26 05:05:00,16.6,11.7,30.19,WNW,293,0.4,0.4,81,0.00,,,0.00,WUHU216HW,2013-01-26 10:05:00,
2013-01-26 06:30:00,17.6,13.2,30.23,NNW,338,1.8,1.8,83,0.00,,,0.00,WUHU216HW,2013-01-26 11:30:00,
2013-01-26 06:35:00,17.6,13.2,30.23,NNW,338,1.8,1.8,83,0.00,,,0.00,WUHU216HW,2013-01-26 11:35:00,
2013-01-26 07:00:00,19.4,13.6,30.24,North,0,2.5,2.5,78,0.00,,,0.00,WUHU216HW,2013-01-26 12:00:00,
2013-01-26 07:05:00,19.4,13.6,30.24,North,0,1.1,2.5,78,0.00,,,0.00,WUHU216HW,2013-01-26 12:05:00,
2013-01-26 07:10:00,19.4,13.6,30.25,NNW,338,1.6,1.6,78,0.00,,,0.00,WUHU216HW,2013-01-26 12:10:00,
2013-01-26 07:15:00,19.4,13.6,30.25,NNW,338,2.0,3.4,78,0.00,,,0.00,WUHU216HW,2013-01-26 12:15:00,
2013-01-26 07:20:00,19.4,13.3,30.24,NNW,338,1.8,3.4,77,0.00,,,0.00,WUHU216HW,2013-01-26 12:20:00,
2013-01-26 07:25:00,19.4,13.3,30.24,NW,315,2.0,3.1,77,0.00,,,0.00,WUHU216HW,2013-01-26 12:25:00,
2013-01-26 07:30:00,19.4,13.3,30.25,NNW,338,2.0,2.0,77,0.00,,,0.00,WUHU216HW,2013-01-26 12:30:00,
2013-01-26 07:35:00,19.4,13.3,30.25,North,0,1.3,2.2,77,0.00,,,0.00,WUHU216HW,2013-01-26 12:35:00,
2013-01-26 07:40:00,19.4,13.3,30.26,NNW,338,1.8,2.2,77,0.00,,,0.00,WUHU216HW,2013-01-26 12:40:00,
2013-01-26 07:45:00,19.4,13.3,30.26,NNW,338,3.1,3.1,77,0.00,,,0.00,WUHU216HW,2013-01-26 12:45:00,
2013-01-26 07:50:00,19.4,13.3,30.26,NNW,338,0.9,3.4,77,0.00,,,0.00,WUHU216HW,2013-01-26 12:50:00,
2013-01-26 07:55:00,19.3,13.2,30.27,NNW,338,0.9,3.4,77,0.00,,,0.00,WUHU216HW,2013-01-26 12:55:00,
2013-01-26 08:00:00,19.3,13.2,30.27,NNW,338,1.3,2.2,77,0.00,,,0.00,WUHU216HW,2013-01-26 13:00:00,
2013-01-26 08:05:00,19.3,13.2,30.27,NW,315,2.0,3.4,77,0.00,,,0.00,WUHU216HW,2013-01-26 13:05:00,
2013-01-26 08:10:00,19.3,13.2,30.28,WNW,293,3.6,3.6,77,0.00,,,0.00,WUHU216HW,2013-01-26 13:10:00,
2013-01-26 08:15:00,19.4,13.3,30.28,NNW,338,1.8,4.0,77,0.00,,,0.00,WUHU216HW,2013-01-26 13:15:00,
2013-01-26 08:20:00,19.4,13.3,30.28,North,0,1.3,4.0,77,0.00,,,0.00,WUHU216HW,2013-01-26 13:20:00,
2013-01-26 08:25:00,19.4,13.3,30.28,WNW,293,2.9,2.9,77,0.00,,,0.00,WUHU216HW,2013-01-26 13:25:00,
2013-01-26 08:30:00,19.6,13.5,30.29,NW,315,2.5,2.9,77,0.00,,,0.00,WUHU216HW,2013-01-26 13:30:00,
2013-01-26 08:35:00,19.8,13.7,30.29,NNW,338,0.4,3.6,77,0.00,,,0.00,WUHU216HW,2013-01-26 13:35:00,
2013-01-26 08:40:00,19.8,13.7,30.29,NW,315,4.0,4.0,77,0.00,,,0.00,WUHU216HW,2013-01-26 13:40:00,
2013-01-26 08:45:00,19.8,13.7,30.29,WNW,293,2.5,4.0,77,0.00,,,0.00,WUHU216HW,2013-01-26 13:45:00,
2013-01-26 08:50:00,20.0,13.9,30.29,WNW,293,2.5,3.8,77,0.00,,,0.00,WUHU216HW,2013-01-26 13:50:00,
2013-01-26 08:55:00,20.0,13.9,30.30,NW,315,3.4,3.4,77,0.00,,,0.00,WUHU216HW,2013-01-26 13:55:00,
2013-01-26 09:00:00,20.0,13.5,30.30,WNW,293,4.9,4.9,76,0.00,,,0.00,WUHU216HW,2013-01-26 14:00:00,
2013-01-26 09:05:00,20.3,14.2,30.30,NNW,338,2.5,4.9,77,0.00,,,0.00,WUHU216HW,2013-01-26 14:05:00,
2013-01-26 09:10:00,20.5,14.4,30.31,NNW,338,1.3,5.1,77,0.00,,,0.00,WUHU216HW,2013-01-26 14:10:00,
2013-01-26 09:15:00,20.5,14.4,30.31,North,0,1.3,5.1,77,0.00,,,0.00,WUHU216HW,2013-01-26 14:15:00,
2013-01-26 09:20:00,20.7,14.2,30.31,NW,315,3.4,4.7,76,0.00,,,0.00,WUHU216HW,2013-01-26 14:20:00,
2013-01-26 09:25:00,20.9,14.4,30.32,NNW,338,2.9,4.5,76,0.00,,,0.00,WUHU216HW,2013-01-26 14:25:00,
2013-01-26 09:30:00,21.2,14.5,30.32,WNW,293,2.9,7.6,75,0.00,,,0.00,WUHU216HW,2013-01-26 14:30:00,
2013-01-26 09:35:00,21.2,14.5,30.32,North,0,2.5,7.6,75,0.00,,,0.00,WUHU216HW,2013-01-26 14:35:00,
2013-01-26 09:40:00,21.4,14.7,30.32,WNW,293,2.9,4.7,75,0.00,,,0.00,WUHU216HW,2013-01-26 14:40:00,
2013-01-26 09:45:00,21.8,15.0,30.32,WNW,293,5.8,5.8,75,0.00,,,0.00,WUHU216HW,2013-01-26 14:45:00,
2013-01-26 09:50:00,21.8,14.8,30.32,NNW,338,1.8,5.8,74,0.00,,,0.00,WUHU216HW,2013-01-26 14:50:00,
2013-01-26 09:55:00,22.1,15.4,30.33,NNW,338,1.8,4.3,75,0.00,,,0.00,WUHU216HW,2013-01-26 14:55:00,
2013-01-26 10:00:00,22.1,15.1,30.32,NNW,338,1.3,3.4,74,0.00,,,0.00,WUHU216HW,2013-01-26 15:00:00,
2013-01-26 10:05:00,22.3,15.3,30.33,North,0,1.1,3.4,74,0.00,,,0.00,WUHU216HW,2013-01-26 15:05:00,
2013-01-26 10:10:00,22.7,15.3,30.33,NNW,338,4.0,6.9,73,0.00,,,0.00,WUHU216HW,2013-01-26 15:10:00,
2013-01-26 10:15:00,22.9,15.5,30.34,NW,315,3.8,6.9,73,0.00,,,0.00,WUHU216HW,2013-01-26 15:15:00,
2013-01-26 10:20:00,23.0,15.7,30.34,NNW,338,2.9,4.7,73,0.00,,,0.00,WUHU216HW,2013-01-26 15:20:00,
2013-01-26 10:25:00,23.4,16.0,30.34,NNW,338,2.2,5.1,73,0.00,,,0.00,WUHU216HW,2013-01-26 15:25:00,
2013-01-26 10:30:00,23.4,15.7,30.34,NNW,338,3.4,5.1,72,0.00,,,0.00,WUHU216HW,2013-01-26 15:30:00,
2013-01-26 10:35:00,23.4,16.0,30.34,North,0,1.1,6.0,73,0.00,,,0.00,WUHU216HW,2013-01-26 15:35:00,
2013-01-26 10:40:00,23.8,16.4,30.34,North,0,3.6,6.0,73,0.00,,,0.00,WUHU216HW,2013-01-26 15:40:00,
2013-01-26 10:45:00,23.9,16.5,30.34,North,0,3.6,5.4,73,0.00,,,0.00,WUHU216HW,2013-01-26 15:45:00,
2013-01-26 10:50:00,24.1,16.7,30.35,NW,315,2.7,5.4,73,0.00,,,0.00,WUHU216HW,2013-01-26 15:50:00,
2013-01-26 10:55:00,24.5,16.8,30.35,North,0,1.1,4.9,72,0.00,,,0.00,WUHU216HW,2013-01-26 15:55:00,
2013-01-26 11:00:00,24.8,16.8,30.35,North,0,5.1,5.1,71,0.00,,,0.00,WUHU216HW,2013-01-26 16:00:00,
2013-01-26 11:05:00,24.5,16.8,30.35,NNW,338,1.8,5.1,72,0.00,,,0.00,WUHU216HW,2013-01-26 16:05:00,
2013-01-26 11:10:00,24.7,16.6,30.35,North,0,2.5,4.9,71,0.00,,,0.00,WUHU216HW,2013-01-26 16:10:00,
2013-01-26 11:15:00,25.2,17.4,30.35,NNW,338,3.1,4.0,72,0.00,,,0.00,WUHU216HW,2013-01-26 16:15:00,
2013-01-26 11:20:00,25.4,17.6,30.36,North,0,2.0,4.0,72,0.00,,,0.00,WUHU216HW,2013-01-26 16:20:00,
2013-01-26 11:25:00,25.6,17.5,30.36,NW,315,1.3,4.0,71,0.00,,,0.00,WUHU216HW,2013-01-26 16:25:00,
2013-01-26 11:30:00,25.7,17.9,30.36,North,0,0.4,4.0,72,0.00,,,0.00,WUHU216HW,2013-01-26 16:30:00,
2013-01-26 11:35:00,26.6,18.5,30.36,NNW,338,2.7,4.0,71,0.00,,,0.00,WUHU216HW,2013-01-26 16:35:00,
2013-01-26 11:40:00,27.2,18.7,30.36,North,0,3.1,3.4,70,0.00,,,0.00,WUHU216HW,2013-01-26 16:40:00,
2013-01-26 11:45:00,27.2,17.6,30.36,North,0,2.2,3.4,67,0.00,,,0.00,WUHU216HW,2013-01-26 16:45:00,
2013-01-26 11:50:00,27.5,18.0,30.36,North,0,2.2,4.3,67,0.00,,,0.00,WUHU216HW,2013-01-26 16:50:00,
2013-01-26 11:55:00,27.9,18.7,30.36,North,0,3.4,4.7,68,0.00,,,0.00,WUHU216HW,2013-01-26 16:55:00,
2013-01-26 12:00:00,27.7,17.8,30.36,North,0,3.6,4.7,66,0.00,,,0.00,WUHU216HW,2013-01-26 17:00:00,
2013-01-26 12:05:00,27.9,18.4,30.36,NNW,338,4.0,4.7,67,0.00,,,0.00,WUHU216HW,2013-01-26 17:05:00,
2013-01-26 12:10:00,27.9,18.0,30.36,North,0,3.4,4.0,66,0.00,,,0.00,WUHU216HW,2013-01-26 17:10:00,
2013-01-26 12:15:00,27.7,17.8,30.36,North,0,2.7,3.4,66,0.00,,,0.00,WUHU216HW,2013-01-26 17:15:00,
2013-01-26 12:20:00,27.7,17.8,30.36,North,0,2.0,3.6,66,0.00,,,0.00,WUHU216HW,2013-01-26 17:20:00,
2013-01-26 12:25:00,28.3,18.4,30.36,North,0,3.4,4.3,66,0.00,,,0.00,WUHU216HW,2013-01-26 17:25:00,
2013-01-26 12:30:00,28.4,18.2,30.35,North,0,1.1,4.3,65,0.00,,,0.00,WUHU216HW,2013-01-26 17:30:00,
2013-01-26 12:35:00,28.4,17.8,30.36,NNW,338,2.2,3.8,64,0.00,,,0.00,WUHU216HW,2013-01-26 17:35:00,
2013-01-26 12:40:00,29.2,18.8,30.35,North,0,2.2,3.8,65,0.01,,,0.01,WUHU216HW,2013-01-26 17:40:00,
2013-01-26 12:45:00,29.2,17.7,30.35,NNW,338,1.1,3.1,62,0.01,,,0.01,WUHU216HW,2013-01-26 17:45:00,
2013-01-26 12:50:00,29.3,18.6,30.35,NNW,338,4.3,4.3,64,0.01,,,0.01,WUHU216HW,2013-01-26 17:50:00,
2013-01-26 12:55:00,29.9,19.1,30.34,WNW,293,3.4,4.3,64,0.01,,,0.01,WUHU216HW,2013-01-26 17:55:00,
2013-01-26 13:00:00,29.9,19.1,30.35,North,0,1.1,4.0,64,0.01,,,0.01,WUHU216HW,2013-01-26 18:00:00,
2013-01-26 13:05:00,30.2,18.7,30.34,North,0,0.0,4.0,62,0.01,,,0.01,WUHU216HW,2013-01-26 18:05:00,
2013-01-26 13:10:00,30.8,19.6,30.34,NNW,338,2.9,2.9,63,0.02,,,0.02,WUHU216HW,2013-01-26 18:10:00,
2013-01-26 13:15:00,30.2,18.4,30.34,North,0,0.4,2.9,61,0.02,,,0.02,WUHU216HW,2013-01-26 18:15:00,
2013-01-26 13:20:00,30.4,18.9,30.34,North,0,2.0,2.9,62,0.02,,,0.02,WUHU216HW,2013-01-26 18:20:00,
2013-01-26 13:25:00,31.0,19.8,30.34,East,90,4.0,4.0,63,0.02,,,0.02,WUHU216HW,2013-01-26 18:25:00,
2013-01-26 13:30:00,31.7,20.2,30.34,ENE,68,2.7,4.3,62,0.02,,,0.02,WUHU216HW,2013-01-26 18:30:00,
2013-01-26 13:35:00,32.4,18.4,30.34,North,0,0.7,4.3,56,0.01,,,0.02,WUHU216HW,2013-01-26 18:35:00,
2013-01-26 13:40:00,30.6,18.4,30.34,SW,225,3.8,4.3,60,0.01,,,0.02,WUHU216HW,2013-01-26 18:40:00,
2013-01-26 13:45:00,31.1,19.6,30.34,South,180,0.4,4.3,62,0.01,,,0.02,WUHU216HW,2013-01-26 18:45:00,
2013-01-26 13:50:00,32.2,19.5,30.33,North,0,1.6,3.4,59,0.02,,,0.02,WUHU216HW,2013-01-26 18:50:00,
2013-01-26 13:55:00,30.8,18.5,30.33,NNW,338,1.8,5.4,60,0.02,,,0.03,WUHU216HW,2013-01-26 18:55:00,
2013-01-26 14:00:00,30.6,18.4,30.34,East,90,0.4,5.4,60,0.02,,,0.03,WUHU216HW,2013-01-26 19:00:00,
2013-01-26 14:05:00,31.0,19.1,30.34,North,0,2.0,2.0,61,0.01,,,0.03,WUHU216HW,2013-01-26 19:05:00,
2013-01-26 14:10:00,31.1,19.6,30.34,North,0,0.0,2.9,62,0.01,,,0.03,WUHU216HW,2013-01-26 19:10:00,
2013-01-26 14:15:00,31.0,18.7,30.34,NNW,338,1.8,2.9,60,0.01,,,0.03,WUHU216HW,2013-01-26 19:15:00,
2013-01-26 14:20:00,31.5,19.6,30.34,ENE,68,0.4,2.7,61,0.01,,,0.03,WUHU216HW,2013-01-26 19:20:00,
2013-01-26 14:25:00,31.7,19.4,30.34,NNW,338,2.0,2.0,60,0.01,,,0.03,WUHU216HW,2013-01-26 19:25:00,
2013-01-26 14:30:00,31.9,19.6,30.34,NNW,338,0.4,3.8,60,0.01,,,0.03,WUHU216HW,2013-01-26 19:30:00,
2013-01-26 14:35:00,31.9,20.0,30.34,East,90,0.7,3.8,61,0.01,,,0.03,WUHU216HW,2013-01-26 19:35:00,
2013-01-26 14:40:00,32.2,20.0,30.34,North,0,3.4,3.4,60,0.01,,,0.03,WUHU216HW,2013-01-26 19:40:00,
2013-01-26 14:45:00,31.0,18.3,30.34,West,270,3.4,4.5,59,0.01,,,0.03,WUHU216HW,2013-01-26 19:45:00,
2013-01-26 14:50:00,31.0,18.7,30.34,North,0,0.9,6.0,60,0.00,,,0.03,WUHU216HW,2013-01-26 19:50:00,
2013-01-26 14:55:00,31.0,19.4,30.34,SSW,203,0.4,6.0,62,0.00,,,0.03,WUHU216HW,2013-01-26 19:55:00,
2013-01-26 15:00:00,31.9,19.6,30.34,North,0,0.4,1.8,60,0.00,,,0.03,WUHU216HW,2013-01-26 20:00:00,
2013-01-26 15:05:00,32.0,19.8,30.34,North,0,0.4,1.8,60,0.00,,,0.03,WUHU216HW,2013-01-26 20:05:00,
2013-01-26 15:10:00,31.3,18.6,30.34,WNW,293,1.1,1.8,59,0.00,,,0.03,WUHU216HW,2013-01-26 20:10:00,
2013-01-26 15:15:00,31.1,19.3,30.34,NNW,338,2.2,2.7,61,0.00,,,0.03,WUHU216HW,2013-01-26 20:15:00,
2013-01-26 15:20:00,30.6,18.4,30.34,NW,315,1.1,2.7,60,0.00,,,0.03,WUHU216HW,2013-01-26 20:20:00,
2013-01-26 15:25:00,31.3,19.8,30.34,NNE,23,0.0,1.6,62,0.01,,,0.03,WUHU216HW,2013-01-26 20:25:00,
2013-01-26 15:30:00,31.5,18.8,30.35,WNW,293,4.9,4.9,59,0.01,,,0.04,WUHU216HW,2013-01-26 20:30:00,
2013-01-26 15:35:00,31.0,19.1,30.35,North,0,2.0,4.9,61,0.01,,,0.04,WUHU216HW,2013-01-26 20:35:00,
2013-01-26 15:40:00,31.3,19.4,30.35,North,0,1.6,2.5,61,0.01,,,0.04,WUHU216HW,2013-01-26 20:40:00,
2013-01-26 15:45:00,31.5,19.6,30.35,ENE,68,0.4,1.8,61,0.01,,,0.04,WUHU216HW,2013-01-26 20:45:00,
2013-01-26 15:50:00,31.0,18.7,30.35,North,0,0.4,2.2,60,0.01,,,0.04,WUHU216HW,2013-01-26 20:50:00,
2013-01-26 15:55:00,31.0,19.4,30.35,NNW,338,1.1,2.2,62,0.01,,,0.04,WUHU216HW,2013-01-26 20:55:00,
2013-01-26 16:00:00,30.6,18.7,30.35,WNW,293,1.8,1.8,61,0.01,,,0.04,WUHU216HW,2013-01-26 21:00:00,
2013-01-26 16:05:00,30.4,18.9,30.36,North,0,0.4,1.8,62,0.01,,,0.04,WUHU216HW,2013-01-26 21:05:00,
2013-01-26 16:10:00,30.2,18.7,30.36,North,0,0.2,1.6,62,0.01,,,0.04,WUHU216HW,2013-01-26 21:10:00,
2013-01-26 16:15:00,30.2,18.7,30.35,NNW,338,0.9,2.9,62,0.01,,,0.04,WUHU216HW,2013-01-26 21:15:00,
2013-01-26 16:20:00,30.2,18.7,30.35,NE,45,1.1,2.9,62,0.01,,,0.04,WUHU216HW,2013-01-26 21:20:00,
2013-01-26 16:25:00,30.6,19.1,30.36,North,0,0.4,3.1,62,0.00,,,0.04,WUHU216HW,2013-01-26 21:25:00,
2013-01-26 16:30:00,30.4,18.5,30.36,NNW,338,1.1,3.1,61,0.00,,,0.04,WUHU216HW,2013-01-26 21:30:00,
2013-01-26 16:35:00,30.2,18.0,30.36,NNW,338,1.1,2.7,60,0.00,,,0.04,WUHU216HW,2013-01-26 21:35:00,
2013-01-26 16:39:00,30.4,18.9,30.36,ENE,68,1.8,1.8,62,0.00,,,0.04,WUHU216HW,2013-01-26 21:39:00,
2013-01-26 16:44:00,30.8,19.3,30.36,North,0,2.5,2.5,62,0.00,,,0.04,WUHU216HW,2013-01-26 21:44:00,
2013-01-26 16:49:00,31.0,19.4,30.37,NNE,23,2.7,3.1,62,0.00,,,0.04,WUHU216HW,2013-01-26 21:49:00,
2013-01-26 16:54:00,31.0,19.4,30.37,North,0,2.5,3.1,62,0.00,,,0.04,WUHU216HW,2013-01-26 21:54:00,
2013-01-26 16:59:00,31.1,19.6,30.37,NE,45,1.8,3.4,62,0.00,,,0.04,WUHU216HW,2013-01-26 21:59:00,
2013-01-26 17:05:00,30.8,19.3,30.37,North,0,1.8,3.4,62,0.00,,,0.04,WUHU216HW,2013-01-26 22:05:00,
2013-01-26 17:10:00,30.2,18.4,30.37,North,0,0.7,3.4,61,0.00,,,0.04,WUHU216HW,2013-01-26 22:10:00,
2013-01-26 17:15:00,30.1,18.5,30.37,North,0,0.4,2.2,62,0.00,,,0.04,WUHU216HW,2013-01-26 22:15:00,
2013-01-26 17:19:00,30.1,18.5,30.36,NNE,23,3.4,3.4,62,0.00,,,0.04,WUHU216HW,2013-01-26 22:19:00,
2013-01-26 17:24:00,30.2,18.7,30.37,North,0,1.6,3.8,62,0.00,,,0.04,WUHU216HW,2013-01-26 22:24:00,
2013-01-26 17:30:00,30.2,18.7,30.37,North,0,0.4,3.8,62,0.00,,,0.04,WUHU216HW,2013-01-26 22:30:00,
2013-01-26 17:35:00,29.9,18.4,30.37,North,0,0.0,3.8,62,0.00,,,0.04,WUHU216HW,2013-01-26 22:35:00,
2013-01-26 17:37:00,29.7,18.6,30.37,NNE,23,0.4,0.4,63,0.00,,,0.04,WUHU216HW,2013-01-26 22:37:00,
2013-01-26 17:40:00,29.7,18.6,30.37,NNE,23,0.4,3.8,63,0.00,,,0.04,WUHU216HW,2013-01-26 22:40:00,
2013-01-26 17:45:00,29.7,18.6,30.37,NNE,23,0.4,1.3,63,0.00,,,0.04,WUHU216HW,2013-01-26 22:45:00,
2013-01-26 18:00:00,28.1,17.1,30.36,North,0,1.3,1.3,63,0.00,,,0.04,WUHU216HW,2013-01-26 23:00:00,
2013-01-26 18:05:00,27.7,17.1,30.37,NNE,23,1.6,1.6,64,0.00,,,0.04,WUHU216HW,2013-01-26 23:05:00,
2013-01-26 18:10:00,27.5,16.9,30.38,NNE,23,0.9,1.6,64,0.00,,,0.04,WUHU216HW,2013-01-26 23:10:00,
2013-01-26 18:15:00,27.4,17.1,30.37,NNE,23,2.5,2.5,65,0.00,,,0.04,WUHU216HW,2013-01-26 23:15:00,
2013-01-26 18:20:00,27.2,16.9,30.38,North,0,0.2,2.5,65,0.00,,,0.04,WUHU216HW,2013-01-26 23:20:00,
2013-01-26 18:25:00,27.0,17.1,30.37,North,0,0.9,1.1,66,0.00,,,0.04,WUHU216HW,2013-01-26 23:25:00,
2013-01-26 18:30:00,26.8,16.9,30.38,NNE,23,0.4,1.1,66,0.00,,,0.04,WUHU216HW,2013-01-26 23:30:00,
2013-01-26 18:35:00,26.5,16.6,30.38,NNE,23,1.1,1.6,66,0.00,,,0.04,WUHU216HW,2013-01-26 23:35:00,
2013-01-26 18:40:00,26.3,16.4,30.38,North,0,0.4,1.6,66,0.00,,,0.04,WUHU216HW,2013-01-26 23:40:00,
2013-01-26 18:45:00,25.9,16.0,30.38,NNE,23,2.2,2.2,66,0.00,,,0.04,WUHU216HW,2013-01-26 23:45:00,
2013-01-26 18:50:00,25.7,16.2,30.38,NNE,23,1.8,2.2,67,0.00,,,0.04,WUHU216HW,2013-01-26 23:50:00,
2013-01-26 18:55:00,25.6,16.0,30.39,NNE,23,2.0,2.0,67,0.00,,,0.04,WUHU216HW,2013-01-26 23:55:00,
2013-01-26 19:00:00,25.2,16.0,30.39,NNE,23,2.0,3.1,68,0.00,,,0.04,WUHU216HW,2013-01-27 00:00:00,
2013-01-26 19:05:00,25.0,16.2,30.39,NNE,23,1.3,3.8,69,0.00,,,0.04,WUHU216HW,2013-01-27 00:05:00,
2013-01-26 19:10:00,24.8,16.0,30.39,NE,45,1.8,3.8,69,0.00,,,0.04,WUHU216HW,2013-01-27 00:10:00,
2013-01-26 19:15:00,24.7,15.6,30.39,North,0,2.5,4.0,68,0.00,,,0.04,WUHU216HW,2013-01-27 00:15:00,
2013-01-26 19:20:00,24.5,15.4,30.39,ENE,68,1.3,4.0,68,0.00,,,0.04,WUHU216HW,2013-01-27 00:20:00,
2013-01-26 19:25:00,24.3,15.6,30.39,East,90,1.1,2.2,69,0.00,,,0.04,WUHU216HW,2013-01-27 00:25:00,
2013-01-26 19:30:00,24.1,15.4,30.39,NE,45,1.8,2.2,69,0.00,,,0.04,WUHU216HW,2013-01-27 00:30:00,
2013-01-26 19:35:00,23.9,15.2,30.39,NNE,23,0.4,2.9,69,0.00,,,0.04,WUHU216HW,2013-01-27 00:35:00,
2013-01-26 19:40:00,23.9,15.2,30.39,ENE,68,2.5,3.1,69,0.00,,,0.04,WUHU216HW,2013-01-27 00:40:00,
2013-01-26 19:45:00,23.8,15.0,30.39,NE,45,2.5,3.1,69,0.00,,,0.04,WUHU216HW,2013-01-27 00:45:00,
2013-01-26 19:50:00,23.6,14.9,30.39,East,90,1.8,2.5,69,0.00,,,0.04,WUHU216HW,2013-01-27 00:50:00,
2013-01-26 19:55:00,23.6,15.2,30.39,East,90,2.9,3.8,70,0.00,,,0.04,WUHU216HW,2013-01-27 00:55:00,
2013-01-26 20:00:00,23.6,15.6,30.39,East,90,4.5,4.5,71,0.00,,,0.04,WUHU216HW,2013-01-27 01:00:00,
2013-01-26 20:05:00,23.8,15.8,30.39,East,90,2.5,4.7,71,0.00,,,0.04,WUHU216HW,2013-01-27 01:05:00,
2013-01-26 20:10:00,23.8,16.0,30.39,East,90,1.1,4.7,72,0.00,,,0.04,WUHU216HW,2013-01-27 01:10:00,
2013-01-26 20:15:00,23.8,16.0,30.39,SE,135,2.0,3.4,72,0.00,,,0.04,WUHU216HW,2013-01-27 01:15:00,
2013-01-26 20:20:00,23.8,16.0,30.39,ESE,113,2.5,3.4,72,0.00,,,0.04,WUHU216HW,2013-01-27 01:20:00,
2013-01-26 20:25:00,23.8,16.4,30.39,East,90,0.9,3.6,73,0.00,,,0.04,WUHU216HW,2013-01-27 01:25:00,
2013-01-26 20:30:00,23.8,16.0,30.40,ESE,113,2.2,3.6,72,0.00,,,0.04,WUHU216HW,2013-01-27 01:30:00,
2013-01-26 20:35:00,23.8,16.0,30.40,East,90,0.2,2.5,72,0.00,,,0.04,WUHU216HW,2013-01-27 01:35:00,
2013-01-26 20:40:00,23.6,15.8,30.40,East,90,0.7,1.6,72,0.00,,,0.04,WUHU216HW,2013-01-27 01:40:00,
2013-01-26 20:45:00,23.4,15.7,30.40,East,90,1.1,1.6,72,0.00,,,0.04,WUHU216HW,2013-01-27 01:45:00,
2013-01-26 20:50:00,23.0,15.0,30.40,East,90,1.1,1.1,71,0.00,,,0.04,WUHU216HW,2013-01-27 01:50:00,
2013-01-26 20:55:00,22.7,14.7,30.41,East,90,0.0,1.1,71,0.00,,,0.04,WUHU216HW,2013-01-27 01:55:00,
2013-01-26 21:00:00,22.3,14.3,30.41,East,90,0.4,0.4,71,0.00,,,0.04,WUHU216HW,2013-01-27 02:00:00,
2013-01-26 21:05:00,22.1,14.1,30.41,East,90,0.0,0.4,71,0.00,,,0.04,WUHU216HW,2013-01-27 02:05:00,
2013-01-26 21:10:00,21.8,13.8,30.41,East,90,0.0,0.4,71,0.00,,,0.04,WUHU216HW,2013-01-27 02:10:00,
2013-01-26 21:15:00,21.6,13.6,30.41,East,90,0.0,0.0,71,0.00,,,0.04,WUHU216HW,2013-01-27 02:15:00,
2013-01-26 21:20:00,21.1,13.4,30.41,East,90,0.0,0.0,72,0.00,,,0.04,WUHU216HW,2013-01-27 02:20:00,
2013-01-26 21:25:00,20.9,13.2,30.42,East,90,0.0,0.2,72,0.00,,,0.04,WUHU216HW,2013-01-27 02:25:00,
2013-01-26 21:30:00,20.7,13.1,30.42,WNW,293,0.4,1.6,72,0.00,,,0.04,WUHU216HW,2013-01-27 02:30:00,
2013-01-26 21:35:00,20.5,13.5,30.42,WNW,293,0.2,1.6,74,0.00,,,0.04,WUHU216HW,2013-01-27 02:35:00,
2013-01-26 21:40:00,20.5,13.8,30.41,NNW,338,0.9,0.9,75,0.00,,,0.04,WUHU216HW,2013-01-27 02:40:00,
2013-01-26 21:45:00,20.5,13.8,30.41,North,0,0.4,0.9,75,0.00,,,0.04,WUHU216HW,2013-01-27 02:45:00,
2013-01-26 21:50:00,20.2,13.2,30.41,North,0,0.2,0.7,74,0.00,,,0.04,WUHU216HW,2013-01-27 02:50:00,
2013-01-26 21:55:00,20.0,13.2,30.41,NNE,23,0.2,0.7,75,0.00,,,0.04,WUHU216HW,2013-01-27 02:55:00,
2013-01-26 22:00:00,19.4,12.7,30.42,North,0,0.0,0.7,75,0.00,,,0.04,WUHU216HW,2013-01-27 03:00:00,
2013-01-26 22:05:00,19.4,12.4,30.42,North,0,0.0,0.4,74,0.00,,,0.04,WUHU216HW,2013-01-27 03:05:00,
2013-01-26 22:10:00,19.4,12.7,30.42,North,0,0.4,1.1,75,0.00,,,0.04,WUHU216HW,2013-01-27 03:10:00,
2013-01-26 22:15:00,19.4,12.7,30.41,North,0,0.9,1.1,75,0.00,,,0.04,WUHU216HW,2013-01-27 03:15:00,
2013-01-26 22:20:00,19.1,12.3,30.41,North,0,0.7,0.9,75,0.00,,,0.04,WUHU216HW,2013-01-27 03:20:00,
2013-01-26 22:25:00,19.1,12.3,30.41,North,0,0.0,0.7,75,0.00,,,0.04,WUHU216HW,2013-01-27 03:25:00,
2013-01-26 22:30:00,18.7,12.0,30.41,North,0,0.0,0.4,75,0.00,,,0.04,WUHU216HW,2013-01-27 03:30:00,
2013-01-26 22:35:00,18.5,11.9,30.41,North,0,0.4,0.9,75,0.00,,,0.04,WUHU216HW,2013-01-27 03:35:00,
2013-01-26 22:40:00,18.4,11.7,30.41,North,0,0.0,0.9,75,0.00,,,0.04,WUHU216HW,2013-01-27 03:40:00,
2013-01-26 22:45:00,18.2,11.8,30.41,NE,45,0.4,0.4,76,0.00,,,0.04,WUHU216HW,2013-01-27 03:45:00,
2013-01-26 22:50:00,18.2,11.8,30.40,East,90,1.1,1.1,76,0.00,,,0.04,WUHU216HW,2013-01-27 03:50:00,
2013-01-26 22:55:00,18.0,11.6,30.40,East,90,0.0,1.1,76,0.00,,,0.04,WUHU216HW,2013-01-27 03:55:00,
2013-01-26 23:00:00,18.0,11.6,30.41,NNE,23,0.0,1.1,76,0.00,,,0.04,WUHU216HW,2013-01-27 04:00:00,
2013-01-26 23:05:00,18.0,11.9,30.41,NNE,23,0.0,0.0,77,0.00,,,0.04,WUHU216HW,2013-01-27 04:05:00,
2013-01-26 23:10:00,18.4,12.2,30.41,ESE,113,1.1,1.1,77,0.00,,,0.04,WUHU216HW,2013-01-27 04:10:00,
2013-01-26 23:15:00,18.2,12.1,30.41,ESE,113,0.0,1.1,77,0.00,,,0.04,WUHU216HW,2013-01-27 04:15:00,
2013-01-26 23:20:00,18.4,12.5,30.41,ESE,113,0.0,0.4,78,0.00,,,0.04,WUHU216HW,2013-01-27 04:20:00,
2013-01-26 23:25:00,18.2,12.3,30.41,ESE,113,0.0,0.4,78,0.00,,,0.04,WUHU216HW,2013-01-27 04:25:00,
2013-01-26 23:30:00,18.2,12.3,30.41,ESE,113,0.0,0.0,78,0.00,,,0.04,WUHU216HW,2013-01-27 04:30:00,
2013-01-26 23:35:00,18.0,12.3,30.41,ESE,113,0.0,0.0,78,0.00,,,0.04,WUHU216HW,2013-01-27 04:35:00,
2013-01-26 23:40:00,17.6,11.9,30.41,ESE,113,0.0,0.0,78,0.00,,,0.04,WUHU216HW,2013-01-27 04:40:00,
2013-01-26 23:45:00,17.6,11.9,30.41,ENE,68,0.9,0.9,78,0.00,,,0.04,WUHU216HW,2013-01-27 04:45:00,
2013-01-26 23:50:00,17.3,11.5,30.40,East,90,0.9,1.6,78,0.00,,,0.04,WUHU216HW,2013-01-27 04:50:00,
2013-01-26 23:55:00,17.5,11.7,30.41,East,90,0.0,1.6,78,0.00,,,0.04,WUHU216HW,2013-01-27 04:55:00,